RADUGA 30 [-]

Last updated on Aug. 12, 2020, 5:32 a.m. UTC

1 22836U 93062A   20224.83852073 -.00000107  00000-0  00000-0 0  9996
2 22836  14.8657   4.0697 0003693 342.6391 351.0828  1.00258768 24582
UTC
Height (km)
Latitude
Longitude
Inclination
Orbital Period
UTC large
Height (km)
Speed (km/s)
/
Latitude / Longitude
Inclination (degrees)
Orbital Period (minutes)
Azimuth
Elevation
Range (km)
Doppler Factor
iOS Compass Heading
iOS Angle

Next 30 passes for location: Hong Kong

Rise time Rise Azimuth (degrees) Set time Set Azimuth (degrees) Duration Max altitude (degrees)

No matching passes for this satellites